Jefferson, NC

4:04 PM EDT on June 23, 2017 (GMT -0400)
Ashe County

Weather History for KGEV - December, 2000

Change the Weather History Date:

Sunday, December 24, 2000

  Actual Average Record
Temperature  
Mean Temperature 26 °F -  
Max Temperature 32 °F 44 °F 65 °F (2015)
Min Temperature 19 °F 23 °F -5 °F (1983)
Degree Days  
Heating Degree Days 40    
Moisture  
Dew Point 9 °F    
Average Humidity 44    
Maximum Humidity 54    
Minimum Humidity 27    
Precipitation  
Precipitation 0.00 in - - ()
Sea Level Pressure  
Sea Level Pressure 30.19 in    
Wind  
Wind Speed 10 mph (West)    
Max Wind Speed 29 mph    
Max Gust Speed 39 mph    
Visibility 10 miles    
Events      
Averages and records for this station are not official NWS values.
T = Trace of Precipitation, MM = Missing Value Source: NWS Daily Summary

Daily Weather History Graph

Daily Weather History Graph

Search for Another Location

Airport or City:

Trip Planner

Search our weather history database for the weather conditions in past years. The results will help you decide how hot, cold, wet, or windy it might be!

Date:

Astronomy

Dec. 24, 2000 Rise Set
Actual Time 7:35 AM EST 5:15 PM EST
Civil Twilight 7:06 AM EST 5:44 PM EST
Nautical Twilight 6:34 AM EST 6:17 PM EST
Astronomical Twilight 6:02 AM EST 6:48 PM EST
Moon 6:31 AM EST (12/24) 4:38 PM EST (12/24)
Length of Visible Light 10h 38m
Length of Day
9h 40m
Waning Crescent, 1% of the Moon is Illuminated
Dec 24
Waning Crescent
Dec 25
New
Jan 2
First Quarter
Jan 9
Full
Jan 16
Last Quarter

Hourly Weather History & Observations

Time (EST) Temp. Windchill Dew Point Humidity Pressure Visibility Wind Dir Wind Speed Gust Speed Precip Events Conditions
12:17 AM 19.4 °F - 3.2 °F 49% 30.26 in 10.0 mi Calm Calm - N/A   Overcast
12:37 AM 19.4 °F - 3.2 °F 49% 30.26 in 10.0 mi Calm Calm - N/A   Overcast
12:57 AM 19.4 °F - 3.2 °F 49% 30.25 in 10.0 mi Calm Calm - N/A   Overcast
1:17 AM 19.4 °F - 3.2 °F 49% 30.25 in 10.0 mi Calm Calm - N/A   Overcast
1:37 AM 19.4 °F - 5.0 °F 54% 30.25 in 10.0 mi Calm Calm - N/A   Scattered Clouds
1:57 AM 21.2 °F - 3.2 °F 46% 30.23 in 10.0 mi Calm Calm - N/A   Clear
2:17 AM 19.4 °F - 1.4 °F 46% 30.23 in 10.0 mi Calm Calm - N/A   Clear
2:37 AM 19.4 °F - 3.2 °F 49% 30.23 in 10.0 mi Calm Calm - N/A   Clear
2:57 AM 19.4 °F - 3.2 °F 49% 30.23 in 10.0 mi Calm Calm - N/A   Scattered Clouds
3:17 AM 19.4 °F - 3.2 °F 49% 30.23 in 10.0 mi Calm Calm - N/A   Scattered Clouds
3:37 AM 19.4 °F - 3.2 °F 49% 30.22 in 10.0 mi Calm Calm - N/A   Overcast
3:57 AM 19.4 °F - 5.0 °F 54% 30.22 in 10.0 mi Calm Calm - N/A   Overcast
4:17 AM 21.2 °F - 3.2 °F 46% 30.22 in 10.0 mi Calm Calm - N/A   Overcast
4:37 AM 23.0 °F - 1.4 °F 39% 30.21 in 10.0 mi Calm Calm - N/A   Mostly Cloudy
4:57 AM 28.4 °F 21.2 °F 1.4 °F 31% 30.21 in 10.0 mi West 6.9 mph - N/A   Scattered Clouds
5:17 AM 30.2 °F 18.5 °F -0.4 °F 27% 30.20 in 10.0 mi West 17.3 mph - N/A   Mostly Cloudy
5:37 AM 30.2 °F 19.3 °F 5.0 °F 34% 30.20 in 10.0 mi West 15.0 mph 27.6 mph N/A   Mostly Cloudy
5:57 AM 30.2 °F 18.1 °F 3.2 °F 32% 30.19 in 10.0 mi West 18.4 mph 24.2 mph N/A   Mostly Cloudy
6:17 AM 30.2 °F 17.8 °F 3.2 °F 32% 30.19 in 10.0 mi West 19.6 mph 31.1 mph N/A   Scattered Clouds
6:37 AM 30.2 °F 18.1 °F 3.2 °F 32% 30.19 in 10.0 mi West 18.4 mph 33.4 mph N/A   Scattered Clouds
6:57 AM 30.2 °F 16.5 °F 3.2 °F 32% 30.19 in 10.0 mi West 24.2 mph 32.2 mph N/A   Clear
7:17 AM 30.2 °F 19.8 °F 5.0 °F 34% 30.20 in 10.0 mi West 13.8 mph 27.6 mph N/A   Clear
7:37 AM 30.2 °F 17.1 °F 8.6 °F 40% 30.19 in 10.0 mi West 21.9 mph 27.6 mph N/A   Clear
7:57 AM 30.2 °F 16.2 °F 6.8 °F 37% 30.19 in 10.0 mi West 25.3 mph 32.2 mph N/A   Clear
8:17 AM 28.4 °F 15.4 °F 5.0 °F 37% 30.20 in 10.0 mi West 19.6 mph 33.4 mph N/A   Clear
8:37 AM 30.2 °F 18.1 °F 5.0 °F 34% 30.20 in 10.0 mi West 18.4 mph 28.8 mph N/A   Clear
8:57 AM 30.2 °F 16.5 °F 5.0 °F 34% 30.20 in 10.0 mi West 24.2 mph 34.5 mph N/A   Clear
9:17 AM 32.0 °F 19.8 °F 5.0 °F 32% 30.20 in 10.0 mi West 20.7 mph 29.9 mph N/A   Clear
9:37 AM 32.0 °F 18.4 °F 5.0 °F 32% 30.19 in 10.0 mi WNW 26.5 mph 32.2 mph N/A   Clear
9:57 AM 32.0 °F 17.9 °F 6.8 °F 35% 30.19 in 10.0 mi West 28.8 mph 38.0 mph N/A   Clear
10:17 AM 32.0 °F 18.4 °F 6.8 °F 35% 30.21 in 10.0 mi West 26.5 mph 39.1 mph N/A   Clear
10:37 AM 32.0 °F 20.1 °F 8.6 °F 38% 30.21 in 10.0 mi West 19.6 mph 33.4 mph N/A   Clear
10:57 AM 32.0 °F 19.8 °F 8.6 °F 38% 30.21 in 10.0 mi West 20.7 mph 29.9 mph N/A   Clear
11:17 AM 32.0 °F 19.5 °F 8.6 °F 38% 30.20 in 10.0 mi West 21.9 mph 31.1 mph N/A   Clear
11:37 AM 32.0 °F 20.1 °F 10.4 °F 41% 30.20 in 10.0 mi West 19.6 mph 27.6 mph N/A   Clear
11:57 AM 32.0 °F 19.5 °F 12.2 °F 44% 30.18 in 10.0 mi West 21.9 mph 34.5 mph N/A   Clear
12:17 PM 32.0 °F 20.1 °F 14.0 °F 48% 30.17 in 10.0 mi WNW 19.6 mph 28.8 mph N/A   Clear
12:37 PM 32.0 °F 19.8 °F 14.0 °F 48% 30.17 in 10.0 mi West 20.7 mph 32.2 mph N/A   Clear
12:57 PM 32.0 °F 20.1 °F 15.8 °F 51% 30.17 in 10.0 mi WNW 19.6 mph 29.9 mph N/A   Clear
1:17 PM 32.0 °F 19.8 °F 15.8 °F 51% 30.17 in 10.0 mi West 20.7 mph 29.9 mph N/A   Clear
1:37 PM 32.0 °F 21.6 °F 15.8 °F 51% 30.16 in 10.0 mi WNW 15.0 mph 26.5 mph N/A   Clear
1:57 PM 32.0 °F 23.0 °F 15.8 °F 51% 30.16 in 10.0 mi WSW 11.5 mph 19.6 mph N/A   Clear
2:17 PM 32.0 °F 22.5 °F 15.8 °F 51% 30.16 in 10.0 mi WSW 12.7 mph 20.7 mph N/A   Clear
2:37 PM 32.0 °F 22.1 °F 15.8 °F 51% 30.16 in 10.0 mi West 13.8 mph 27.6 mph N/A   Clear
2:57 PM 32.0 °F 20.8 °F 15.8 °F 51% 30.15 in 10.0 mi WNW 17.3 mph 23.0 mph N/A   Clear
3:17 PM 32.0 °F 20.8 °F 15.8 °F 51% 30.16 in 10.0 mi West 17.3 mph 24.2 mph N/A   Clear
3:37 PM 32.0 °F 20.8 °F 14.0 °F 48% 30.16 in 10.0 mi West 17.3 mph 21.9 mph N/A   Clear
3:57 PM 32.0 °F 22.5 °F 14.0 °F 48% 30.17 in 10.0 mi West 12.7 mph 23.0 mph N/A   Clear
4:17 PM 32.0 °F 21.2 °F 14.0 °F 48% 30.17 in 10.0 mi West 16.1 mph 27.6 mph N/A   Clear
4:37 PM 32.0 °F 21.2 °F 14.0 °F 48% 30.17 in 10.0 mi West 16.1 mph 27.6 mph N/A   Clear
4:57 PM 32.0 °F 19.8 °F 15.8 °F 51% 30.16 in 10.0 mi West 20.7 mph 26.5 mph N/A   Clear
5:17 PM 32.0 °F 21.2 °F 14.0 °F 48% 30.17 in 10.0 mi West 16.1 mph 26.5 mph N/A   Clear
5:37 PM 32.0 °F 20.8 °F 14.0 °F 48% 30.17 in 10.0 mi WNW 17.3 mph 31.1 mph N/A   Clear
5:57 PM 32.0 °F 20.5 °F 14.0 °F 48% 30.17 in 10.0 mi WNW 18.4 mph 25.3 mph N/A   Clear
6:17 PM 32.0 °F 21.2 °F 14.0 °F 48% 30.17 in 10.0 mi WNW 16.1 mph 27.6 mph N/A   Clear
6:37 PM 32.0 °F 20.5 °F 14.0 °F 48% 30.17 in 10.0 mi WNW 18.4 mph 31.1 mph N/A   Clear
6:57 PM 32.0 °F 20.5 °F 15.8 °F 51% 30.18 in 10.0 mi West 18.4 mph 27.6 mph N/A   Clear
7:17 PM 32.0 °F 19.8 °F 15.8 °F 51% 30.17 in 10.0 mi West 20.7 mph 31.1 mph N/A   Clear
7:37 PM 32.0 °F 20.5 °F 15.8 °F 51% 30.17 in 10.0 mi WNW 18.4 mph 26.5 mph N/A   Clear
7:57 PM 32.0 °F 23.0 °F 14.0 °F 48% 30.18 in 10.0 mi WNW 11.5 mph 31.1 mph N/A   Clear
8:17 PM 32.0 °F 20.8 °F 14.0 °F 48% 30.18 in 10.0 mi WNW 17.3 mph 24.2 mph N/A   Clear
8:37 PM 30.2 °F 18.9 °F 12.2 °F 47% 30.17 in 10.0 mi WNW 16.1 mph 27.6 mph N/A   Clear
8:57 PM 28.4 °F 23.3 °F 12.2 °F 51% 30.19 in 10.0 mi West 4.6 mph 18.4 mph N/A   Clear
9:17 PM 28.4 °F 16.2 °F 10.4 °F 47% 30.18 in 10.0 mi NW 17.3 mph 35.7 mph N/A   Clear
9:37 PM 28.4 °F 19.7 °F 10.4 °F 47% 30.20 in 10.0 mi WNW 9.2 mph 23.0 mph N/A   Clear
9:57 PM 28.4 °F 21.2 °F 12.2 °F 51% 30.21 in 10.0 mi NW 6.9 mph - N/A   Clear
10:17 PM 26.6 °F 17.5 °F 10.4 °F 51% 30.21 in 10.0 mi NW 9.2 mph 20.7 mph N/A   Clear
10:37 PM 26.6 °F 18.2 °F 6.8 °F 43% 30.22 in 10.0 mi WNW 8.1 mph 26.5 mph N/A   Clear
10:57 PM 26.6 °F 17.5 °F -0.4 °F 31% 30.23 in 10.0 mi NW 9.2 mph 19.6 mph N/A   Clear
11:17 PM 24.8 °F 13.4 °F -2.2 °F 31% 30.23 in 10.0 mi WNW 12.7 mph 23.0 mph N/A   Clear
11:37 PM 23.0 °F 13.1 °F 5.0 °F 46% 30.23 in 10.0 mi NW 9.2 mph 17.3 mph N/A   Clear
11:57 PM 21.2 °F 11.7 °F 5.0 °F 50% 30.23 in 10.0 mi NW 8.1 mph - N/A   Clear